Change the Weather History Date:

Thursday, May 22, 2014

  Actual Average Record
Temperature  
Mean Temperature 78 °F 78 °F  
Max Temperature 87 °F 88 °F 96 °F (2005)
Min Temperature 69 °F 69 °F 48 °F (1892)
Cooling Degree Days 13 13  
Month to date cooling degree days 193 241  
Year to date cooling degree days 440 522  
Growing Degree Days 28 (Base 50)    
Moisture  
Dew Point 67 °F    
Average Humidity 74    
Maximum Humidity 100    
Minimum Humidity 48    
Precipitation  
Precipitation 0.00 in 0.16 in 3.10 in (1963)
Month to date precipitation 4.25 3.59  
Year to date precipitation 11.61 16.89  
Sea Level Pressure  
Sea Level Pressure 30.10 in    
Wind  
Wind Speed 5 mph (SSE)    
Max Wind Speed 17 mph    
Max Gust Speed 22 mph    
Visibility 10 miles    
Events      
T = Trace of Precipitation, MM = Missing Value Source: NWS Daily Summary

Daily Weather History Graph

Daily Weather History Graph

Search for Another Location

Airport or City:

Trip Planner

Search our weather history database for the weather conditions in past years. The results will help you decide how hot, cold, wet, or windy it might be!

Date:

Astronomy

May. 22, 2014 Rise Set
Actual Time 6:24 AM CDT 8:11 PM CDT
Civil Twilight 5:58 AM CDT 8:37 PM CDT
Nautical Twilight 5:26 AM CDT 9:09 PM CDT
Astronomical Twilight 4:52 AM CDT 9:43 PM CDT
Moon 2:15 AM CDT (5/22) 2:26 PM CDT (5/22)
Length of Visible Light 14h 39m
Length of Day
13h 46m
Last Quarter, 37% of the Moon is Illuminated
May 22
Last Quarter
May 28
New
Jun 5
First Quarter
Jun 12
Full
Jun 19
Last Quarter

Hourly Weather History & Observations

Time (CDT) Temp. Heat Index Dew Point Humidity Pressure Visibility Wind Dir Wind Speed Gust Speed Precip Events Conditions
12:53 AM 72.0 °F - 69.1 °F 91% 30.10 in 10.0 mi SSE 5.8 mph - N/A   Partly Cloudy
1:53 AM 72.0 °F - 69.1 °F 91% 30.10 in 10.0 mi SSE 3.5 mph - N/A   Partly Cloudy
2:53 AM 72.0 °F - 69.1 °F 91% 30.10 in 10.0 mi Calm Calm - N/A   Partly Cloudy
3:38 AM 71.6 °F - 69.8 °F 94% 30.08 in 10.0 mi Calm Calm - N/A   Mostly Cloudy
3:53 AM 71.1 °F - 68.0 °F 90% 30.10 in 10.0 mi Calm Calm - N/A   Mostly Cloudy
4:53 AM 71.1 °F - 69.1 °F 93% 30.10 in 10.0 mi Calm Calm - N/A   Mostly Cloudy
5:03 AM 71.6 °F - 68.0 °F 88% 30.08 in 10.0 mi Calm Calm - N/A   Scattered Clouds
5:53 AM 71.1 °F - 69.1 °F 93% 30.11 in 10.0 mi Calm Calm - N/A   Scattered Clouds
6:53 AM 71.1 °F - 69.1 °F 93% 30.12 in 10.0 mi Calm Calm - N/A   Scattered Clouds
7:53 AM 73.9 °F - 70.0 °F 87% 30.12 in 10.0 mi SSE 5.8 mph - N/A   Scattered Clouds
8:51 AM 75.2 °F - 69.8 °F 83% 30.11 in 10.0 mi South 9.2 mph - N/A   Mostly Cloudy
8:53 AM 75.9 °F - 70.0 °F 82% 30.13 in 10.0 mi SSE 11.5 mph - N/A   Mostly Cloudy
9:37 AM 78.8 °F - 68.0 °F 69% 30.12 in 10.0 mi South 8.1 mph - N/A   Mostly Cloudy
9:53 AM 78.1 °F - 66.9 °F 68% 30.14 in 10.0 mi South 9.2 mph - N/A   Mostly Cloudy
10:53 AM 82.9 °F 84.6 °F 64.9 °F 54% 30.14 in 10.0 mi SE 10.4 mph - N/A   Scattered Clouds
11:53 AM 84.0 °F 85.4 °F 64.0 °F 51% 30.14 in 10.0 mi SE 8.1 mph - N/A   Scattered Clouds
12:53 PM 84.0 °F 85.8 °F 64.9 °F 53% 30.13 in 10.0 mi Calm Calm - N/A   Scattered Clouds
1:53 PM 86.0 °F 86.8 °F 63.0 °F 46% 30.12 in 10.0 mi SSE 9.2 mph - N/A   Mostly Cloudy
2:53 PM 86.0 °F 87.3 °F 64.0 °F 48% 30.11 in 10.0 mi South 8.1 mph - N/A   Mostly Cloudy
3:53 PM 86.0 °F 87.3 °F 64.0 °F 48% 30.09 in 10.0 mi South 12.7 mph 17.3 mph N/A   Mostly Cloudy
4:53 PM 84.9 °F 86.6 °F 64.9 °F 51% 30.08 in 10.0 mi SSE 11.5 mph 19.6 mph N/A   Scattered Clouds
5:53 PM 82.9 °F 84.6 °F 64.9 °F 54% 30.06 in 10.0 mi South 11.5 mph 19.6 mph N/A   Scattered Clouds
6:53 PM 81.0 °F 82.7 °F 64.9 °F 58% 30.06 in 10.0 mi SSE 12.7 mph - N/A   Scattered Clouds
7:53 PM 78.1 °F - 66.0 °F 66% 30.08 in 10.0 mi SSE 10.4 mph - N/A   Scattered Clouds
8:53 PM 75.9 °F - 66.9 °F 74% 30.08 in 10.0 mi SSE 6.9 mph - N/A   Scattered Clouds
9:53 PM 73.9 °F - 69.1 °F 85% 30.08 in 10.0 mi SSE 6.9 mph - N/A   Scattered Clouds
10:53 PM 73.0 °F - 69.1 °F 87% 30.10 in 10.0 mi South 4.6 mph - N/A   Scattered Clouds
11:53 PM 72.0 °F - 69.1 °F 91% 30.12 in 10.0 mi SE 4.6 mph - N/A   Scattered Clouds